Abastumani

Georgia     41˚45′16″N   42˚49′55″E
temp.,
°C
wind,
m/s
gust,
m/s
humid.,
%
clouds,
%
prec.,
mm/h
press.,
hPa
HPBL,
m
3 december, thu
thu301:00−2˚sse019198 0.0 102621
04:00−3˚se009071 0.0 102621
07:00−4˚sse018933 0.0 102721
10:00−1˚se118123 0.0 102772
13:00+3˚se12710 0.0 1025207
16:00+3˚se11760 0.0 1024128
19:00−2˚s01800 0.0 102621
22:00−3˚sse01860 0.0 102621
4 december, fri
fri401:00−3˚se11880 0.0 102721
04:00−4˚se11866 0.0 102721
07:00−4˚se11860 0.0 102621
10:00−2˚se11780 0.0 102695
13:00+2˚se22683 0.0 1024222
16:00+2˚se12721 0.0 1023161
19:00−3˚ssw00830 0.0 102421
22:00−3˚sse00860 0.0 102521
5 december, sat
sat501:00−4˚sse01860 0.0 102521
04:00−5˚se01850 0.0 102521
07:00−5˚se01850 0.0 102421
10:00−3˚se11753 0.0 102488
13:00+1˚se126516 0.0 1022233
16:00+1˚se116636 0.0 1021164
19:00−2˚s017388 0.0 102321
22:00−3˚sse017888 0.0 102321
6 december, sun
sun601:00−4˚sse018490 0.0 102428
04:00−4˚sw008388 0.0 102326
07:00−5˚s018484 0.0 102321
10:00−3˚se118177 0.1 1023117
13:00se116985 0.0 1022293
16:00ese126688 0.1 1021328
19:00−3˚se117683 0.0 102321
22:00−4˚se118378 0.0 102426
7 december, mon
mon701:00−5˚ese11853 0.0 102534
04:00−6˚se118426 0.0 102635
07:00−6˚se118377 0.0 102635
10:00−4˚se127538 0.0 1026133
13:00−1˚se22623 0.0 1025306
16:00−1˚se12622 0.0 1024258
19:00−4˚ssw11760 0.0 102521
22:00−5˚sse11800 0.0 102627